Time,TemperatureF,DewpointF,PressureIn,WindDirection,WindDirectionDegrees,WindSpeedMPH,WindSpeedGustMPH,Humidity,HourlyPrecipIn,Conditions,Clouds,dailyrainin,SoftwareType,DateUTC
2013-09-14 00:11:00,56.3,51.0,30.06,WSW,238,3.0,-999.0,83,-99.99,,,0.00,weatherlink.com 1.10,2013-09-14 06:11:00,
2013-09-14 00:26:00,56.0,51.0,30.06,WSW,238,0.0,-999.0,84,-99.99,,,0.00,weatherlink.com 1.10,2013-09-14 06:26:00,
2013-09-14 00:41:00,55.3,52.0,30.07,WSW,238,1.0,-999.0,87,-99.99,,,0.00,weatherlink.com 1.10,2013-09-14 06:41:00,
2013-09-14 00:56:00,54.8,52.0,30.07,WSW,238,0.0,-999.0,89,-99.99,,,0.00,weatherlink.com 1.10,2013-09-14 06:56:00,
2013-09-14 01:11:00,54.7,52.0,30.05,WSW,238,0.0,-999.0,90,-99.99,,,0.00,weatherlink.com 1.10,2013-09-14 07:11:00,
2013-09-14 01:26:00,54.2,52.0,30.06,WSW,238,0.0,-999.0,91,-99.99,,,0.00,weatherlink.com 1.10,2013-09-14 07:26:00,
2013-09-14 01:41:00,53.6,52.0,30.06,WSW,238,0.0,-999.0,93,-99.99,,,0.00,weatherlink.com 1.10,2013-09-14 07:41:00,
2013-09-14 01:56:00,53.6,52.0,30.06,WSW,238,0.0,-999.0,94,-99.99,,,0.00,weatherlink.com 1.10,2013-09-14 07:56:00,
2013-09-14 02:11:00,53.2,51.0,30.02,WSW,238,0.0,-999.0,93,-99.99,,,0.00,weatherlink.com 1.10,2013-09-14 08:11:00,
2013-09-14 02:26:00,53.1,51.0,30.02,WSW,238,0.0,-999.0,93,-99.99,,,0.00,weatherlink.com 1.10,2013-09-14 08:26:00,
2013-09-14 02:41:00,52.8,51.0,30.02,WSW,238,0.0,-999.0,94,-99.99,,,0.03,weatherlink.com 1.10,2013-09-14 08:41:00,
2013-09-14 02:56:00,52.2,51.0,30.04,WSW,238,0.0,-999.0,95,-99.99,,,0.04,weatherlink.com 1.10,2013-09-14 08:56:00,
2013-09-14 03:11:00,52.0,51.0,30.05,WSW,238,0.0,-999.0,96,-99.99,,,0.04,weatherlink.com 1.10,2013-09-14 09:11:00,
2013-09-14 03:26:00,52.0,51.0,30.05,WSW,238,0.0,-999.0,97,-99.99,,,0.04,weatherlink.com 1.10,2013-09-14 09:26:00,
2013-09-14 03:41:00,51.9,51.0,30.05,WSW,238,0.0,-999.0,98,-99.99,,,0.04,weatherlink.com 1.10,2013-09-14 09:41:00,
2013-09-14 03:56:00,51.6,51.0,30.05,WSW,238,0.0,-999.0,98,-99.99,,,0.04,weatherlink.com 1.10,2013-09-14 09:56:00,
2013-09-14 04:11:00,51.1,51.0,30.09,WSW,238,0.0,-999.0,98,-99.99,,,0.04,weatherlink.com 1.10,2013-09-14 10:11:00,
2013-09-14 04:26:00,51.0,51.0,30.09,WSW,238,0.0,-999.0,98,-99.99,,,0.04,weatherlink.com 1.10,2013-09-14 10:26:00,
2013-09-14 04:41:00,50.8,50.0,30.08,WSW,238,0.0,-999.0,98,-99.99,,,0.04,weatherlink.com 1.10,2013-09-14 10:41:00,
2013-09-14 04:56:00,50.8,51.0,30.09,WSW,238,0.0,-999.0,99,-99.99,,,0.04,weatherlink.com 1.10,2013-09-14 10:56:00,
2013-09-14 05:11:00,50.5,50.0,30.10,WSW,238,0.0,-999.0,98,-99.99,,,0.04,weatherlink.com 1.10,2013-09-14 11:11:00,
2013-09-14 05:26:00,50.7,51.0,30.10,WSW,238,0.0,-999.0,99,-99.99,,,0.04,weatherlink.com 1.10,2013-09-14 11:26:00,
2013-09-14 05:41:00,50.5,50.0,30.10,WSW,238,0.0,-999.0,99,-99.99,,,0.04,weatherlink.com 1.10,2013-09-14 11:41:00,
2013-09-14 05:56:00,50.5,50.0,30.10,WSW,238,0.0,-999.0,99,-99.99,,,0.04,weatherlink.com 1.10,2013-09-14 11:56:00,
2013-09-14 06:11:00,51.0,51.0,30.12,WSW,238,0.0,-999.0,99,-99.99,,,0.04,weatherlink.com 1.10,2013-09-14 12:11:00,
2013-09-14 06:26:00,51.0,51.0,30.12,WSW,238,0.0,-999.0,99,-99.99,,,0.04,weatherlink.com 1.10,2013-09-14 12:26:00,
2013-09-14 06:41:00,51.0,51.0,30.11,WSW,238,0.0,-999.0,99,-99.99,,,0.04,weatherlink.com 1.10,2013-09-14 12:41:00,
2013-09-14 06:56:00,50.5,50.0,30.11,WSW,238,0.0,-999.0,99,-99.99,,,0.04,weatherlink.com 1.10,2013-09-14 12:56:00,
2013-09-14 07:11:00,50.4,50.0,30.11,WSW,238,0.0,-999.0,99,-99.99,,,0.04,weatherlink.com 1.10,2013-09-14 13:11:00,
2013-09-14 07:26:00,50.4,50.0,30.12,WSW,238,0.0,-999.0,99,-99.99,,,0.04,weatherlink.com 1.10,2013-09-14 13:26:00,
2013-09-14 07:41:00,50.7,51.0,30.12,WSW,238,0.0,-999.0,99,-99.99,,,0.04,weatherlink.com 1.10,2013-09-14 13:41:00,
2013-09-14 07:56:00,51.0,51.0,30.12,WSW,238,0.0,-999.0,99,-99.99,,,0.04,weatherlink.com 1.10,2013-09-14 13:56:00,
2013-09-14 08:11:00,51.6,52.0,30.12,WSW,238,0.0,-999.0,100,-99.99,,,0.04,weatherlink.com 1.10,2013-09-14 14:11:00,
2013-09-14 08:26:00,52.0,52.0,30.12,WSW,238,0.0,-999.0,99,-99.99,,,0.04,weatherlink.com 1.10,2013-09-14 14:26:00,
2013-09-14 08:41:00,52.3,52.0,30.11,WSW,238,0.0,-999.0,100,-99.99,,,0.04,weatherlink.com 1.10,2013-09-14 14:41:00,
2013-09-14 08:56:00,52.5,52.0,30.12,SW,230,0.0,-999.0,98,-99.99,,,0.04,weatherlink.com 1.10,2013-09-14 14:56:00,
2013-09-14 09:11:00,52.6,52.0,30.11,SW,230,0.0,-999.0,97,-99.99,,,0.04,weatherlink.com 1.10,2013-09-14 15:11:00,
2013-09-14 09:26:00,52.9,52.0,30.12,SW,230,0.0,-999.0,96,-99.99,,,0.04,weatherlink.com 1.10,2013-09-14 15:26:00,
2013-09-14 09:41:00,54.2,53.0,30.12,SW,230,0.0,-999.0,94,-99.99,,,0.04,weatherlink.com 1.10,2013-09-14 15:41:00,
2013-09-14 09:56:00,55.7,51.0,30.10,SW,230,0.0,-999.0,85,-99.99,,,0.04,weatherlink.com 1.10,2013-09-14 15:56:00,
2013-09-14 10:11:00,56.6,51.0,30.09,SW,228,0.0,-999.0,81,-99.99,,,0.04,weatherlink.com 1.10,2013-09-14 16:11:00,
2013-09-14 10:26:00,57.0,51.0,30.09,SW,228,2.0,-999.0,80,-99.99,,,0.04,weatherlink.com 1.10,2013-09-14 16:26:00,
2013-09-14 10:41:00,55.6,52.0,30.10,SW,217,1.0,-999.0,87,-99.99,,,0.05,weatherlink.com 1.10,2013-09-14 16:41:00,
2013-09-14 10:56:00,53.2,50.0,30.11,West,261,2.0,-999.0,88,-99.99,,,0.09,weatherlink.com 1.10,2013-09-14 16:56:00,
2013-09-14 11:11:00,51.1,48.0,30.14,SSW,203,0.0,-999.0,89,-99.99,,,0.16,weatherlink.com 1.10,2013-09-14 17:11:00,
2013-09-14 11:26:00,49.8,48.0,30.17,SSE,167,0.0,-999.0,94,-99.99,,,0.24,weatherlink.com 1.10,2013-09-14 17:26:00,
2013-09-14 11:41:00,49.2,48.0,30.19,SSE,167,0.0,-999.0,97,-99.99,,,0.28,weatherlink.com 1.10,2013-09-14 17:41:00,
2013-09-14 11:56:00,50.1,50.0,30.17,East,94,1.0,-999.0,98,-99.99,,,0.29,weatherlink.com 1.10,2013-09-14 17:56:00,
2013-09-14 12:11:00,50.7,50.0,30.18,East,94,0.0,-999.0,98,-99.99,,,0.30,weatherlink.com 1.10,2013-09-14 18:11:00,
2013-09-14 12:26:00,50.7,50.0,30.18,East,94,0.0,-999.0,98,-99.99,,,0.30,weatherlink.com 1.10,2013-09-14 18:26:00,
2013-09-14 12:41:00,50.4,50.0,30.18,East,94,0.0,-999.0,98,-99.99,,,0.32,weatherlink.com 1.10,2013-09-14 18:41:00,
2013-09-14 12:56:00,50.1,50.0,30.20,East,94,0.0,-999.0,99,-99.99,,,0.33,weatherlink.com 1.10,2013-09-14 18:56:00,
2013-09-14 13:11:00,50.2,50.0,30.19,East,94,5.0,-999.0,99,-99.99,,,0.34,weatherlink.com 1.10,2013-09-14 19:11:00,
2013-09-14 13:26:00,50.2,50.0,30.18,East,94,0.0,-999.0,99,-99.99,,,0.35,weatherlink.com 1.10,2013-09-14 19:26:00,
2013-09-14 14:23:00,52.2,52.0,30.16,East,95,1.0,-999.0,99,-99.99,,,0.47,weatherlink.com 1.10,2013-09-14 20:23:00,
2013-09-14 14:40:00,55.4,55.0,30.14,East,101,2.0,-999.0,99,-99.99,,,0.47,weatherlink.com 1.10,2013-09-14 20:40:00,
2013-09-14 14:55:00,54.7,53.0,30.10,ENE,64,0.0,-999.0,93,-99.99,,,0.47,weatherlink.com 1.10,2013-09-14 20:55:00,
2013-09-14 15:10:00,55.1,53.0,30.11,East,86,1.0,-999.0,92,-99.99,,,0.47,weatherlink.com 1.10,2013-09-14 21:10:00,
2013-09-14 15:25:00,57.6,54.0,30.11,East,86,0.0,-999.0,88,-99.99,,,0.47,weatherlink.com 1.10,2013-09-14 21:25:00,
2013-09-14 15:40:00,59.5,53.0,30.07,East,87,0.0,-999.0,80,-99.99,,,0.47,weatherlink.com 1.10,2013-09-14 21:40:00,
2013-09-14 15:55:00,61.6,54.0,30.05,East,90,0.0,-999.0,75,-99.99,,,0.47,weatherlink.com 1.10,2013-09-14 21:55:00,
2013-09-14 16:10:00,60.5,54.0,30.02,East,86,0.0,-999.0,78,-99.99,,,0.47,weatherlink.com 1.10,2013-09-14 22:10:00,
2013-09-14 16:26:00,64.2,54.0,30.02,East,86,0.0,-999.0,69,-99.99,,,0.47,weatherlink.com 1.10,2013-09-14 22:26:00,
2013-09-14 16:41:00,63.5,52.0,30.00,East,86,0.0,-999.0,67,-99.99,,,0.47,weatherlink.com 1.10,2013-09-14 22:41:00,
2013-09-14 16:56:00,66.4,53.0,30.02,East,86,0.0,-999.0,63,-99.99,,,0.47,weatherlink.com 1.10,2013-09-14 22:56:00,
2013-09-14 17:11:00,65.3,53.0,29.98,East,86,0.0,-999.0,64,-99.99,,,0.47,weatherlink.com 1.10,2013-09-14 23:11:00,
2013-09-14 17:26:00,61.6,54.0,30.00,East,86,0.0,-999.0,75,-99.99,,,0.47,weatherlink.com 1.10,2013-09-14 23:26:00,
2013-09-14 17:41:00,58.9,53.0,30.04,ENE,74,0.0,-999.0,80,-99.99,,,0.47,weatherlink.com 1.10,2013-09-14 23:41:00,
2013-09-14 17:56:00,58.7,54.0,30.05,ENE,74,0.0,-999.0,83,-99.99,,,0.47,weatherlink.com 1.10,2013-09-14 23:56:00,
2013-09-14 18:11:00,57.5,53.0,30.05,ENE,74,0.0,-999.0,86,-99.99,,,0.47,weatherlink.com 1.10,2013-09-15 00:11:00,
2013-09-14 18:26:00,55.9,52.0,30.06,ENE,74,0.0,-999.0,88,-99.99,,,0.47,weatherlink.com 1.10,2013-09-15 00:26:00,
2013-09-14 18:41:00,55.7,51.0,30.08,ENE,73,0.0,-999.0,83,-99.99,,,0.47,weatherlink.com 1.10,2013-09-15 00:41:00,
2013-09-14 18:56:00,55.1,52.0,30.09,ENE,73,0.0,-999.0,88,-99.99,,,0.47,weatherlink.com 1.10,2013-09-15 00:56:00,
2013-09-14 19:11:00,54.4,52.0,30.09,ENE,73,0.0,-999.0,90,-99.99,,,0.47,weatherlink.com 1.10,2013-09-15 01:11:00,
2013-09-14 19:26:00,54.1,52.0,30.11,ENE,73,0.0,-999.0,93,-99.99,,,0.47,weatherlink.com 1.10,2013-09-15 01:26:00,
2013-09-14 19:41:00,53.6,52.0,30.11,WNW,285,0.0,-999.0,94,-99.99,,,0.48,weatherlink.com 1.10,2013-09-15 01:41:00,
2013-09-14 19:56:00,53.9,52.0,30.12,WNW,285,0.0,-999.0,94,-99.99,,,0.48,weatherlink.com 1.10,2013-09-15 01:56:00,
2013-09-14 20:11:00,53.8,52.0,30.12,WNW,285,0.0,-999.0,95,-99.99,,,0.48,weatherlink.com 1.10,2013-09-15 02:11:00,
2013-09-14 20:26:00,53.3,52.0,30.11,WNW,285,0.0,-999.0,96,-99.99,,,0.48,weatherlink.com 1.10,2013-09-15 02:26:00,
2013-09-14 20:41:00,52.5,51.0,30.12,WNW,285,0.0,-999.0,96,-99.99,,,0.48,weatherlink.com 1.10,2013-09-15 02:41:00,
2013-09-14 20:56:00,52.2,51.0,30.14,WNW,285,0.0,-999.0,97,-99.99,,,0.48,weatherlink.com 1.10,2013-09-15 02:56:00,
2013-09-14 21:11:00,52.0,51.0,30.16,WNW,285,0.0,-999.0,97,-99.99,,,0.48,weatherlink.com 1.10,2013-09-15 03:11:00,
2013-09-14 21:26:00,51.7,51.0,30.13,WNW,285,0.0,-999.0,97,-99.99,,,0.48,weatherlink.com 1.10,2013-09-15 03:26:00,
2013-09-14 21:41:00,51.9,51.0,30.13,WNW,285,0.0,-999.0,97,-99.99,,,0.50,weatherlink.com 1.10,2013-09-15 03:41:00,
2013-09-14 21:56:00,51.7,51.0,30.14,WNW,285,0.0,-999.0,98,-99.99,,,0.51,weatherlink.com 1.10,2013-09-15 03:56:00,
2013-09-14 22:11:00,51.6,51.0,30.15,WNW,285,0.0,-999.0,98,-99.99,,,0.52,weatherlink.com 1.10,2013-09-15 04:11:00,
2013-09-14 22:26:00,50.7,50.0,30.20,NE,35,0.0,-999.0,97,-99.99,,,0.55,weatherlink.com 1.10,2013-09-15 04:26:00,
2013-09-14 22:41:00,50.1,49.0,30.20,ENE,57,0.0,-999.0,97,-99.99,,,0.56,weatherlink.com 1.10,2013-09-15 04:41:00,
2013-09-14 22:56:00,49.5,49.0,30.23,ENE,57,0.0,-999.0,98,-99.99,,,0.58,weatherlink.com 1.10,2013-09-15 04:56:00,
2013-09-14 23:11:00,49.5,49.0,30.24,ENE,57,0.0,-999.0,98,-99.99,,,0.61,weatherlink.com 1.10,2013-09-15 05:11:00,
2013-09-14 23:26:00,48.6,48.0,30.26,ENE,57,0.0,-999.0,98,-99.99,,,0.64,weatherlink.com 1.10,2013-09-15 05:26:00,
2013-09-14 23:41:00,48.5,48.0,30.29,ENE,57,1.0,-999.0,98,-99.99,,,0.65,weatherlink.com 1.10,2013-09-15 05:41:00,
2013-09-14 23:56:00,48.5,48.0,30.28,NNW,331,0.0,-999.0,98,-99.99,,,0.70,weatherlink.com 1.10,2013-09-15 05:56:00,